Regional Weather Roundup
Issued by NWS

Home | Current Version | Previous Version | Text Only | Print | Product List | Glossary On
Versions: 1 2 3 4 5 6 7 8 9 10 11 12 13 14 15 16 17 18 19 20 21 22 23 24 25 26 27 28 29 30 31 32 33 34 35 36 37 38 39 40 41 42 43 44 45 46 47 48 49 50
000
ASHW40 PHFO 260632
RWRHI

WEATHER ROUNDUP FOR HAWAII
NATIONAL WEATHER SERVICE HONOLULU HI
800 PM HST SAT MAR 25 2017

THIS IS AN AUTOMATED REPORT THAT HAS NOT BEEN QUALITY CONTROLLED.

NOTE..."FAIR" INDICATES FEW OR NO CLOUDS BELOW 12,000 FEET WITH NO
SIGNIFICANT WEATHER AND/OR OBSTRUCTIONS TO VISIBILITY.

* - THESE SITES REPORT LIMITED FIELDS

HIZ001>004-260700-
KAUAI-NIIHAU-

CITY           SKY/WX    TMP DP  RH WIND       PRES   REMARKS
LIHUE APT      PTCLDY    74  66  76 NE15      30.22R
PORT ALLEN*      N/A     75 N/A N/A NE14        N/A
POIPU*           N/A     75 N/A N/A NE9G17      N/A
PRINCEVILLE*     N/A     73 N/A N/A SE3         N/A
KOKOLE POINT*  NOT AVBL
MOLOAA DAIRY*    N/A     73  66  78 E6          N/A
WAIMEA HTS*    NOT AVBL
PUU OPAE*      NOT AVBL
PUU LUA*       NOT AVBL
MAKAHA RIDGE*    N/A     68  63  83 S2          N/A
$$

HIZ005>011-260700-
OAHU-

CITY           SKY/WX    TMP DP  RH WIND       PRES   REMARKS
HONOLULU       PTCLDY    77  64  64 NE15      30.18R
KALAELOA       CLEAR     77  63  61 E6        30.20R
KANEOHE MCB    NOT AVBL
WHEELER FIELD  FAIR      73  63  68 VRB3      30.19
BELLOWS*         N/A    N/A N/A N/A NE18        N/A
KAHUKU*          N/A    N/A N/A N/A NE10G20     N/A
WHEELER*       NOT AVBL
WAIANAE HARBOR NOT AVBL
DILLINGHAM*      N/A     88  81  79 N2          N/A  HX 105
KAHUKU TRN*      N/A     82  77  83 W10G22      N/A  HX  91
KAWAILOA*        N/A     70  63  78 E6G18       N/A
KII*             N/A     75  68  78 E17G23      N/A
MAKUA RANGE*     N/A     84  73  70 W7G15       N/A  HX  91
OAHU FOREST NW NOT AVBL
SCHOFIELD BRK*   N/A     81  70  69 MISG        N/A
SCHOFIELD S*   NOT AVBL
WAIANAE VLY*   NOT AVBL
KUAOKALA*      NOT AVBL
HONOULIUULI*   NOT AVBL
MOKUOLOE IS*   NOT AVBL
PALEHUA*       NOT AVBL
WAIAWA PHB*    NOT AVBL
$$

HIZ012>013-260700-
MOLOKAI-

CITY           SKY/WX    TMP DP  RH WIND       PRES   REMARKS
MOLOKAI AIRPT  CLEAR     75  66  73 NE12G24   30.18R
KALAUPAPA      NOT AVBL
MAKAPULAPAI*     N/A     75  66  73 E20G28      N/A
MOLOKAI 1*     NOT AVBL
PUU ALII*        N/A     58  56  93 NE3G13      N/A
$$

HIZ016-260700-
KAHOOLAWE-

CITY           SKY/WX    TMP DP  RH WIND       PRES   REMARKS
KAHOOLAWE*     NOT AVBL
HAKIOAWA*        N/A     70  63  79 MISG      30.58R
HONOKANAIA*      N/A     76  63  63 NE13G36   30.08R
KANELOA*         N/A     73  66  78 NE18G35     N/A
KEALIALALO*    NOT AVBL
LUA MAKIKA*    NOT AVBL
$$

HIZ014>015-260700-
LANAI-

CITY           SKY/WX    TMP DP  RH WIND       PRES   REMARKS
LANAI CITY     FAIR      69  64  84 NE23      30.20S
LANAI 1*       NOT AVBL
$$

HIZ017>028-260700-
MAUI-

CITY           SKY/WX    TMP DP  RH WIND       PRES   REMARKS
KAHULUI        CLEAR     75  65  70 NE16G25   30.15R
KAPALUA-W MAUI NOT AVBL
HANA AIRPORT   CLOUDY    75  66  73 E5        30.24R
HANA*            N/A     75 N/A N/A E7G13       N/A
HALEAKALA SUMM   N/A     41  21  45 E22G45      N/A
MAALAEA BAY*     N/A     75 N/A N/A N17G29      N/A
HALEAKALA*     NOT AVBL
KAUPO GAP*     NOT AVBL
KULA 1*          N/A     57  34  42 SE3G12      N/A
$$

HIZ023>026-260700-
BIG ISLAND OF HAWAII COAST AND LOWER SLOPES-

CITY           SKY/WX    TMP DP  RH WIND       PRES   REMARKS
KAILUA KONA    PTCLDY    78  66  66 S9        30.12R
HILO           CLOUDY    73  67  81 S3        30.21R
HONOKAA*         N/A     68 N/A N/A VRB1        N/A
KAWAIHAE MWT*    N/A     79 N/A N/A W3          N/A
KAWAIHAE*        N/A     79 N/A N/A SW2       30.13R
SOUTH POINT*     N/A     70 N/A N/A N14G21      N/A
UPOLU AIRPORT* NOT AVBL
KAMUELA*       CLEAR     63  57  82 E14       30.24R
HAKALAU*         N/A    N/A N/A N/A SW5G10      N/A
KALOKO-HONOKO*   N/A     79  68  69 S3        30.12
PALI 2*          N/A     70  45  40 S15         N/A
KEALAKOMO*       N/A     75  64  69 NE21G31     N/A
KAUPULEHU*     NOT AVBL
KAPAPALA*        N/A     62  59  91 N5          N/A
LOWER KAHUKU*    N/A     61  59  94 VRB3G13     N/A
PUHE CS*         N/A     77  66  69 W1          N/A
PUHO CS*         N/A     78  67  69 W2          N/A
PTA KEAMUKU*     N/A     61  55  82 CALM        N/A
WAIKOLOA*      NOT AVBL
$$

HIZ027>028-260700-
BIG ISLAND OF HAWAII INTERIOR AND SUMMMITS-

CITY           SKY/WX    TMP DP  RH WIND       PRES   REMARKS
BRADSHAW FIELD CLEAR     61  20  21 SE18G28   30.44R
MK VISITOR CEN   N/A     46  18  31 NE16        N/A
MAUNA KEA*       N/A     32   1  27 NE25        N/A  WCI  19
MAUNA LOA*       N/A     43   5  21 MISG        N/A
MAUNA LOA 1*   NOT AVBL
PTA KIPUKA*      N/A    N/A N/A N/A E16G37      N/A
PTA RANGE 17*    N/A     75  36  23 SE21G35     N/A
PTA WEST*        N/A     63  50  63 NE7G29      N/A
NENE CABIN*      N/A    N/A N/A N/A E13G26      N/A
AHUMOA*        NOT AVBL
PTA PORTABLE*  NOT AVBL
PUU MALI*        N/A    N/A N/A N/A E18G36      N/A
$$

HIC003-260700-
NORTHWEST ISLANDS-

CITY           SKY/WX    TMP DP  RH WIND       PRES   REMARKS
MIDWAY ISLAND  CLOUDY    72  66  83 SE3       30.12R
MIDWAY NOS*      N/A     72 N/A N/A MISG      30.10R
FRENCH FRIGATE NOT AVBL
$$

PHZ110>124-180-260700-
BUOY REPORTS

STATION/POSITION TIME  TEMP    WIND        PRES    WAVE   SWELL
                       AIR SEA DIR/SP/G            HT/PER HT/DIR
                 (UTC) (F)     (DEG/KT/KT) (MB)    (FT/S) (FT/D)
BUOY 51001       0610   75 76   90/ 14/ 19 1023.1
BUOY 51101       0550   76 76   90/ 14/ 17 1023.5R  12/17  11/290
BUOY 51100       NOT AVBL
BUOY 51002       0610   78 78   70/ 19/ 25 1019.3
BUOY 51003       0550   77 78   60/ 14/ 17 1020.5R  10/17  10/280
BUOY 51004       0550      77   60/ 19/ 23 1019.7R   9/ 9   5/100
BARBERS PT BUOY  NOT AVBL
WAIMEA BAY BUOY  0602      75                N/A     7/18   7/310
KAILUA BAY BUOY  0604      76                N/A     6/ 8   2/ 10
LANAI BUOY       0615      79                N/A     4/20   2/250
BARBERS PT 2     NOT AVBL
PAUWELA MAUI     0609      76                N/A     6/20   3/310
HILO             0612      78                N/A     7/ 9   2/ 10
KANEOHE BAY BUOY 0555      76                N/A     5/ 7   2/350
HANALEI KAUAI    0552      78                N/A     8/18   7/300
KAHULUI HARBOR   0600   76 78   40/ 14/ 17 1021.5
HONOLULU HARBOR  0600   77 78   50/  4/  7 1022.9
KILO NALU        NOT AVBL
HILO HARBOR      0600   75 76  170/  1/  3 1022.7
MOKUOLOE         0536   77 79   70/  9/ 15 1022.6R
NAWILIWILI       0600   75      50/  6/ 10 1022.8
WHOTS BUOY       NOT AVBL
BUOY 51028       NOT AVBL
$$

......................KEY........................................
  SKY/WX - SKY CONDITIONS/PRESENT WEATHER
  TMP    - TEMPERATURE IN FAHRENHEIT
  DWPT   - DEWPOINT IN FAHRENHEIT
  RH     - RELATIVE HUMIDITY IN PERCENT
  WIND   - DIRECTION AND SPEED /MPH FOR ISLANDS...KTS FOR BUOYS/
  PRES   - MEAN SEA LEVEL PRESSURE IN INCHES OF HG
  VSB    - VISIBILITY IN MILES
  HX     - HEAT INDEX
  WCI    - WIND CHILL INDEX
  VRB    - VARIABLE WIND DIRECTION
  N/A    - NOT AVAILABLE




USA.gov is the U.S. government's official web portal to all federal, state and local government web resources and services.